Location: Gad�tanya
(48.0500°N, 20.8500°E)
Time: 11:53:34
(UTC+00:00)

Cosmos 2366 rocket - Pass Details

Date: 05 July 2020
Orbit: 954 x 998 km, 82.9° (Epoch: 14 August)

Event Time Altitude Azimuth Distance (km) Brightness Sun altitude
Exits shadow 22:56:29 26° 216° (SW) 1,834 5.0 -19.2°
Maximum altitude 23:00:00 57° 284° (WNW) 1,170 4.4 -19.2°
Drops below altitude 10° 23:06:16 10° 2° (N) 2,772 7.6 -19.1°
Sets 23:08:52 0° 7° (N) 3,721 8.7 -19.0°
